Regional Weather Roundup
Issued by NWS Columbia, SC

Home | Current Version | Previous Version | Text Only | Print | Product List | Glossary On
Versions: 1 2 3 4 5 6 7 8 9 10 11 12 13 14 15 16 17 18 19 20 21 22 23 24 25 26 27 28 29 30 31 32 33 34 35 36 37 38 39 40 41 42 43 44 45 46 47 48 49 50
000
ASUS42 KCAE 201010
RWRCAE
REGIONAL WEATHER ROUNDUP
NATIONAL WEATHER SERVICE COLUMBIA SC
500 AM EST WED NOV 20 2019

NOTE: "FAIR" INDICATES FEW OR NO CLOUDS BELOW 12,000 FEET WITH NO
SIGNIFICANT WEATHER AND/OR OBSTRUCTIONS TO VISIBILITY.

NOT ALL STATIONS ARE QUALITY CONTROLLED BY THE NATIONAL
WEATHER SERVICE. USE DATA WITH CAUTION...ESPECIALLY
DEWPOINT OBSERVATIONS.

SCZ001>056-GAZ040-063>065-077-201100-
...UPSTATE SOUTH CAROLINA...

CITY           SKY/WX    TMP DP  RH WIND       PRES   REMARKS
ANDERSON       FAIR      42  38  85 CALM      30.02R
LIBERTY        FAIR      35  35 100 CALM      30.01R
SPARTANBURG    FAIR      45  36  70 NW5       30.01R
CLEMSON        FAIR      48  35  60 NW7       30.03R
GREENVILLE     FAIR      48  38  68 NW3       30.02R
GREENWOOD      FAIR      37  37 100 NW3       30.03R
GREER          FAIR      38  35  89 W3        30.02R
ROCK HILL      FAIR      38  37  97 N5        30.00R WCI  34
CHESTER        FAIR      43  43 100 NW7       30.00R
LAURENS        FAIR      41  37  87 N3        30.01R


...CENTRAL SOUTH CAROLINA...

CITY           SKY/WX    TMP DP  RH WIND       PRES   REMARKS
COLUMBIA APT   FAIR      38  36  92 CALM      30.00R
COLUMBIA OWENS FAIR      39  36  89 CALM      30.01R FOG
MCENTIRE ANGB  FAIR      35  35  99 CALM      30.00R
ORANGEBURG     FAIR      40  37  89 CALM      30.00R
SUMTER SHAW    CLEAR     43  41  92 NW7       29.98R FOG
NEWBERRY       FAIR      37  37 100 N5        30.04R WCI  34
AIKEN          FAIR      41  41 100 NW3       30.04R
MANNING        FAIR      36  36 100 CALM      29.99R FOG
CAMDEN         FAIR      39  39 100 CALM      30.00R FOG
LANCASTER      FOG       34  34 100 CALM      30.00R VSB 1/2
WINNSBORO      FAIR      37  37 100 CALM      30.00R FOG


...EASTERN AND COASTAL SOUTH CAROLINA...

CITY           SKY/WX    TMP DP  RH WIND       PRES   REMARKS
MYRTLE BEACH   FAIR      43  42  97 CALM      29.99R
N MYRTLE BCH   FAIR      44  43  96 NW5       29.97R FOG
CONWAY         FAIR      36  36 100 CALM      29.99R
MARION         FOG       37  37 100 CALM      29.98R VSB 1/4
FLORENCE       FAIR      37  35  92 W3        29.99R FOG
DARLINGTON     FAIR      38  38 100 CALM      30.00R FOG
CHARLESTON APT FAIR      45  40  82 W7        29.99R
MOUNT PLEASANT FAIR      45  43  93 W3        29.99R
WALTERBORO     FAIR      39  37  93 W3        30.01R
BEAUFORT         N/A     49  42  77 W6        30.01R
HILTON HEAD    FAIR      50  43  76 SW6       30.02R


...EASTERN GEORGIA...

CITY           SKY/WX    TMP DP  RH WIND       PRES   REMARKS
AUGUSTA BUSH F FAIR      40  37  89 CALM      30.01R
AUGUSTA DANIEL FAIR      50  40  68 NW8       30.02R
THOMSON        FAIR      44  41  91 N3        30.03R
CLAXTON        FAIR      41  41  98 CALM      30.04R FOG
SYLVANIA       FAIR      41  39  92 CALM      30.03R
STATESBORO     FAIR      44  40  86 NW3       30.03R
SAVANNAH       FAIR      44  40  85 W5        30.03R


...SOUTHERN NORTH CAROLINA...

CITY           SKY/WX    TMP DP  RH WIND       PRES   REMARKS
CHARLOTTE      FAIR      42  38  85 N7        30.00R
MONROE         FAIR      43  38  82 NW5       29.98R
WADESBORO      FOG       37  36  96 MISG      30.00R VSB 1/4
ROCKINGHAM     FOG       37  34  87 CALM      29.99R VSB 1
RUTHERFORDTON  FAIR      37  37 100 E5        30.02R WCI  34
ASHEVILLE      CLOUDY    45  33  63 NW9       30.02R

$$



USA.gov is the U.S. government's official web portal to all federal, state and local government web resources and services.